[[{"header":{"parameterUnit":"m.s-1","parameterCategory":1,"la1":30.2991,"la2":30.254,"lo1":-89.0895,"lo2":-89.0444,"dy":0.0017,"dx":0.0017,"nx":28,"ny":28,"refTime":"2024-05-02T03:00:00:Z","depth":0,"parameterNumber":2,"parameterNumberName":"U-component_of_WINDS"},"data":[0,0,0,0,0,0,0,0,0,0,0,0,0,0,0,0,0,0,0,0,0,0,0,0,0,0,0,0,0,0,0,0,0,0,0,0,0,0,0,0,0,0,0,0,0,0,0,0,0,0,0,0,0,0,0,0,0,0,-1.0193,-1.0193,0,-1.0234,-1.0235,-1.0235,-1.0237,-1.0236,-1.0236,-1.0235,-1.0277,-1.0279,-1.028,0,0,0,0,0,0,0,0,0,0,0,0,0,-1.0114,-1.0116,-1.0193,-1.0193,-1.0194,-1.0234,-1.0235,-1.0236,-1.0237,-1.0236,-1.0235,-1.0235,-1.0277,-1.0279,-1.0281,0,0,0,0,0,0,0,0,0,0,0,0,0,-1.0151,-1.0116,-1.0193,-1.0199,-1.02,-1.0234,-1.0235,-1.0236,-1.0237,-1.0236,-1.0235,-1.0235,-1.0276,-1.0278,-1.0281,-1.0311,0,0,-1.0288,-1.0289,0,0,0,0,0,0,0,0,-1.0149,-1.0154,-1.0198,-1.0199,-1.02,-1.023,-1.0223,-1.0261,-1.0237,-1.0223,-1.0235,-1.0234,-1.0262,-1.0266,-1.0275,-1.0313,-1.0315,-1.0288,-1.029,-1.0291,-1.0292,0,0,0,0,0,0,0,-1.0147,-1.0153,-1.0209,-1.0198,-1.02,-1.02,-1.0205,-1.023,-1.0246,-1.0224,-1.0224,-1.0229,-1.0262,-1.0273,-1.0276,-1.0315,-1.0288,-1.029,-1.0292,-1.0293,-1.0382,-1.0383,0,0,0,0,0,0,-1.0143,-1.015,-1.0208,-1.021,-1.0172,-1.0202,-1.0207,-1.0221,-1.0246,-1.0249,-1.023,-1.0229,-1.0269,-1.0273,-1.0278,-1.0315,-1.0291,-1.0293,-1.0295,-1.0381,-1.0382,-1.0383,0,0,0,0,0,0,-1.0141,-1.0148,-1.0206,-1.0181,-1.0188,-1.0204,-1.022,-1.0222,-1.0232,-1.025,-1.0253,-1.0237,-1.0269,-1.0274,-1.0303,-1.0317,-1.0294,-1.0296,-1.038,-1.0381,-1.0382,-1.0391,0,0,0,0,0,0,-1.0139,-1.0147,-1.0159,-1.0181,-1.0189,-1.0231,-1.022,-1.0223,-1.0236,-1.0236,-1.0258,-1.0261,-1.0268,-1.0299,-1.0305,-1.032,-1.0298,-1.0379,-1.038,-1.0382,-1.0389,-1.0392,-1.0395,0,0,0,0,0,-1.0136,-1.0159,-1.0159,-1.0166,-1.0204,-1.0232,-1.0237,-1.0245,-1.0238,-1.0249,-1.0261,-1.026,-1.0314,-1.0302,-1.0309,-1.0324,-1.0378,-1.038,-1.0382,-1.0388,-1.0392,-1.0395,0,0,0,0,0,0,-1.0138,-1.0162,-1.0163,-1.0193,-1.021,-1.0232,-1.0247,-1.0248,-1.0267,-1.0266,-1.0275,-1.028,-1.0309,-1.032,-1.0306,-1.0356,-1.0345,-1.0349,-1.0348,-1.0351,-1.0354,-1.0351,-1.03,0,0,0,0,0,-1.0142,-1.0162,-1.0182,-1.0207,-1.0216,-1.023,-1.0242,-1.0247,-1.0265,-1.0273,-1.0286,-1.0304,-1.0325,-1.0339,-1.0359,-1.0391,-1.0396,-1.0405,-1.0408,-1.041,-1.0413,-1.0432,-1.0436,-1.039,-1.039,-1.039,0,0,-1.015,-1.0166,-1.0178,-1.0208,-1.0222,-1.0244,-1.0236,-1.0259,-1.0275,-1.0276,-1.0304,-1.0315,-1.0336,-1.0367,-1.0381,-1.0376,-1.0427,-1.0412,-1.0414,-1.0416,-1.0434,-1.0439,-1.0442,-1.0391,-1.0391,-1.0391,0,0,-1.0176,-1.019,-1.0213,-1.0228,-1.0249,-1.0258,-1.0264,-1.0285,-1.0293,-1.0322,-1.0323,-1.0343,-1.0378,-1.0393,-1.0405,-1.0439,-1.0439,-1.0445,-1.0459,-1.0478,-1.0481,-1.0485,-1.0497,-1.0502,-1.0448,-1.0448,-1.0448,0,-1.0184,-1.0216,-1.0225,-1.0248,-1.0261,-1.0264,-1.0288,-1.0301,-1.0328,-1.0338,-1.0332,-1.0378,-1.0392,-1.0427,-1.0435,-1.0445,-1.0452,-1.0443,-1.048,-1.0483,-1.0487,-1.0499,-1.0504,-1.0449,-1.0449,-1.0448,-1.0448,0,-1.0225,-1.0247,-1.0264,-1.029,-1.0305,-1.0329,-1.0341,-1.0356,-1.036,-1.037,-1.04,-1.0416,-1.0441,-1.0449,-1.0453,-1.0485,-1.0482,-1.0478,-1.0468,-1.0492,-1.0503,-1.0508,-1.045,-1.0449,-1.0449,-1.0449,0,0,-1.0253,-1.0285,-1.0291,-1.0303,-1.0328,-1.0345,-1.0369,-1.0393,-1.0406,-1.0425,-1.0445,-1.0476,-1.0473,-1.0487,-1.0493,-1.0509,-1.0535,-1.0503,-1.0504,-1.0509,-1.0573,-1.0576,-1.0581,-1.0536,-1.0536,-1.0537,-1.0572,0,-1.0282,-1.0325,-1.0334,-1.0371,-1.0392,-1.0396,-1.0416,-1.0434,-1.0444,-1.0464,-1.0475,-1.0497,-1.0491,-1.05,-1.0516,-1.0529,-1.0548,-1.0526,-1.0555,-1.0556,-1.0551,-1.0587,-1.059,-1.0622,-1.0576,-1.0577,-1.0577,0,-1.0322,-1.0343,-1.0382,-1.0405,-1.0414,-1.0432,-1.0456,-1.0475,-1.0495,-1.0501,-1.0518,-1.0522,-1.0547,-1.0536,-1.0571,-1.0556,-1.0569,-1.0577,-1.0578,-1.0582,-1.0568,-1.0592,-1.0632,-1.0637,-1.0585,-1.0584,-1.0583,0,-1.034,-1.0377,-1.0406,-1.0416,-1.0443,-1.0456,-1.0468,-1.0488,-1.0502,-1.0523,-1.0532,-1.0555,-1.0568,-1.0586,-1.0597,-1.0587,-1.0632,-1.0621,-1.0638,-1.0638,-1.0648,-1.0647,-1.0691,-1.0655,-1.0655,-1.0655,-1.0655,0,-1.0372,-1.0396,-1.0414,-1.0432,-1.0459,-1.0469,-1.0496,-1.0508,-1.0525,-1.0546,-1.055,-1.0569,-1.0581,-1.0602,-1.0611,-1.064,-1.0645,-1.0651,-1.0653,-1.0651,-1.0651,-1.066,-1.0658,-1.0656,-1.0656,-1.0656,-1.0655,0,-1.0396,-1.0409,-1.0441,-1.0464,-1.0471,-1.049,-1.051,-1.0527,-1.0538,-1.0564,-1.057,-1.0587,-1.0612,-1.0625,-1.0655,-1.0661,-1.0694,-1.0694,-1.0687,-1.0688,-1.0705,-1.0704,-1.0757,-1.0765,-1.0723,-1.0723,-1.0724,0,-1.0416,-1.0435,-1.0461,-1.0475,-1.0487,-1.051,-1.0525,-1.0536,-1.0551,-1.0577,-1.0591,-1.0616,-1.0637,-1.0677,-1.0692,-1.0716,-1.0717,-1.0734,-1.0721,-1.0719,-1.0719,-1.0718,-1.072,-1.0737,-1.0737,-1.0738,-1.0738,0,-1.0451,-1.0457,-1.0478,-1.0502,-1.052,-1.054,-1.0559,-1.057,-1.0585,-1.0602,-1.0628,-1.0644,-1.0676,-1.0702,-1.0727,-1.0739,-1.0741,-1.0742,-1.0748,-1.0746,-1.0741,-1.0745,-1.0694,-1.0741,-1.0741,-1.074,-1.074,-1.074,-1.0474,-1.0492,-1.0513,-1.0537,-1.0553,-1.0571,-1.0589,-1.0602,-1.0624,-1.0651,-1.0656,-1.0684,-1.0705,-1.0739,-1.0752,-1.0775,-1.0771,-1.0778,-1.078,-1.0782,-1.0784,-1.0738,-1.0779,-1.0779,-1.0779,-1.0779,-1.0779,0,-1.051,-1.0524,-1.0546,-1.0573,-1.0592,-1.0593,-1.0615,-1.0631,-1.0655,-1.0674,-1.0695,-1.0725,-1.075,-1.0768,-1.0793,-1.0808,-1.0809,-1.0814,-1.0813,-1.0816,-1.0785,-1.0778,-1.0812,-1.0812,-1.0812,-1.0812,-1.0812,-1.0812,-1.0531,-1.056,-1.0569,-1.0606,-1.062,-1.0648,-1.066,-1.0677,-1.0693,-1.0727,-1.0747,-1.0759,-1.0778,-1.0805,-1.0828,-1.0832,-1.0842,-1.0847,-1.0851,-1.0822,-1.0818,-1.0815,-1.0809,-1.0848,-1.0848,-1.0881,-1.0881,-1.0881]},{"header":{"parameterUnit":"m.s-1","parameterCategory":1,"la1":30.2991,"la2":30.254,"lo1":-89.0895,"lo2":-89.0444,"dy":0.0017,"dx":0.0017,"nx":28,"ny":28,"refTime":"2024-05-02T03:00:00:Z","depth":0,"parameterNumber":3,"parameterNumberName":"V-component_of_WINDS"},"data":[0,0,0,0,0,0,0,0,0,0,0,0,0,0,0,0,0,0,0,0,0,0,0,0,0,0,0,0,0,0,0,0,0,0,0,0,0,0,0,0,0,0,0,0,0,0,0,0,0,0,0,0,0,0,0,0,0,0,2.8716,2.8716,0,2.8684,2.8684,2.8684,2.8627,2.8626,2.8625,2.8624,2.8592,2.8592,2.8592,0,0,0,0,0,0,0,0,0,0,0,0,0,2.873,2.873,2.8716,2.8716,2.8716,2.8684,2.8684,2.8683,2.8627,2.8626,2.8625,2.8623,2.8592,2.8592,2.8592,0,0,0,0,0,0,0,0,0,0,0,0,0,2.8714,2.873,2.8716,2.8684,2.8681,2.8684,2.8684,2.8683,2.8628,2.8626,2.8624,2.8623,2.8592,2.8592,2.8592,2.8626,0,0,2.8593,2.8593,0,0,0,0,0,0,0,0,2.8715,2.8713,2.8689,2.8686,2.8682,2.8658,2.8677,2.8664,2.8628,2.8648,2.8624,2.8622,2.8615,2.8613,2.8611,2.8624,2.8623,2.8593,2.8593,2.8593,2.8593,0,0,0,0,0,0,0,2.8716,2.8714,2.8704,2.8689,2.8685,2.8671,2.8667,2.8674,2.8641,2.8646,2.8642,2.8639,2.8613,2.8611,2.861,2.8622,2.8593,2.8593,2.8593,2.8593,2.8661,2.8662,0,0,0,0,0,0,2.8722,2.8716,2.8705,2.8703,2.8695,2.8672,2.8668,2.8667,2.8641,2.8635,2.864,2.8636,2.8611,2.861,2.8609,2.8645,2.8593,2.8593,2.8594,2.8659,2.8661,2.8663,0,0,0,0,0,0,2.8722,2.8721,2.8706,2.8708,2.8705,2.8674,2.8674,2.8668,2.8665,2.8636,2.863,2.8644,2.861,2.8608,2.8622,2.8643,2.8593,2.8594,2.8657,2.866,2.8662,2.8718,0,0,0,0,0,0,2.8723,2.8722,2.8734,2.8709,2.8705,2.8719,2.8675,2.8668,2.8666,2.866,2.8638,2.8633,2.8609,2.8622,2.8622,2.8642,2.8594,2.8655,2.8658,2.8661,2.8714,2.8722,2.8729,0,0,0,0,0,2.8724,2.8751,2.8735,2.8734,2.872,2.8721,2.8719,2.869,2.8668,2.868,2.8661,2.8634,2.8641,2.8623,2.8623,2.8644,2.8653,2.8657,2.8661,2.8711,2.8721,2.8729,0,0,0,0,0,0,2.878,2.8747,2.8729,2.8749,2.8738,2.8711,2.8725,2.8701,2.8697,2.8692,2.8657,2.8652,2.867,2.8659,2.864,2.8675,2.8643,2.8647,2.8681,2.869,2.8698,2.8699,2.8594,0,0,0,0,0,2.8795,2.8798,2.877,2.8791,2.8786,2.8757,2.8756,2.8735,2.8723,2.8718,2.87,2.8689,2.8689,2.8689,2.8687,2.8713,2.8707,2.8727,2.8735,2.8741,2.8744,2.8756,2.8765,2.8675,2.8675,2.8675,0,0,2.8825,2.8808,2.8812,2.8802,2.879,2.8795,2.8753,2.876,2.8763,2.8719,2.8729,2.8717,2.8702,2.8722,2.8729,2.8713,2.8768,2.8746,2.8751,2.8751,2.8761,2.8769,2.8777,2.8678,2.8677,2.8677,0,0,2.8883,2.8871,2.8886,2.8876,2.886,2.884,2.8844,2.8821,2.881,2.8821,2.8788,2.8791,2.8792,2.8782,2.8778,2.8833,2.8807,2.8833,2.8872,2.8884,2.8891,2.8897,2.8915,2.8922,2.8837,2.8837,2.8837,0,2.8922,2.8927,2.8897,2.8905,2.8901,2.8862,2.8877,2.8869,2.8854,2.8852,2.8834,2.8833,2.8821,2.8837,2.885,2.8848,2.8851,2.8835,2.8892,2.8898,2.8903,2.892,2.8927,2.884,2.884,2.884,2.8839,0,2.8977,2.8981,2.8995,2.898,2.8979,2.8991,2.8962,2.8964,2.8944,2.8926,2.8937,2.8921,2.8915,2.8918,2.8898,2.8931,2.8921,2.8898,2.8865,2.8915,2.893,2.8937,2.8845,2.8844,2.8843,2.8842,0,0,2.9067,2.9036,2.9041,2.9034,2.9014,2.9016,2.9027,2.9021,2.9022,2.9014,2.9021,2.9023,2.9001,2.8996,2.8975,2.8986,2.9029,2.8961,2.896,2.8973,2.9063,2.9079,2.9087,2.9013,2.9014,2.9015,2.9064,0,2.9118,2.9133,2.9107,2.9128,2.9131,2.9095,2.9104,2.9093,2.9077,2.9078,2.9061,2.9062,2.9034,2.903,2.904,2.9022,2.9046,2.9018,2.9018,2.9019,2.9021,2.9096,2.9113,2.916,2.907,2.9071,2.9071,0,2.918,2.9174,2.9195,2.9174,2.9174,2.9183,2.9174,2.9176,2.9163,2.915,2.9145,2.9121,2.9129,2.9099,2.911,2.9092,2.9091,2.9082,2.9083,2.908,2.9047,2.9093,2.9174,2.9181,2.9081,2.908,2.9079,0,2.9242,2.9239,2.9251,2.9246,2.9222,2.9229,2.9219,2.9204,2.9202,2.9195,2.9194,2.9189,2.9185,2.9182,2.9157,2.9137,2.9171,2.9139,2.916,2.9161,2.9167,2.9167,2.9248,2.917,2.917,2.917,2.917,0,2.9301,2.9315,2.9278,2.9286,2.9301,2.9271,2.9287,2.9273,2.9261,2.9265,2.9234,2.9239,2.9206,2.9207,2.9188,2.9199,2.9199,2.9189,2.9183,2.919,2.9191,2.9188,2.9183,2.9172,2.9171,2.9171,2.9171,0,2.9371,2.9347,2.9358,2.9334,2.9329,2.9341,2.932,2.9326,2.9309,2.9315,2.9315,2.9288,2.9288,2.9263,2.9258,2.9245,2.9264,2.9253,2.9268,2.9264,2.9287,2.9284,2.9366,2.9375,2.9293,2.9294,2.9295,0,2.941,2.942,2.9397,2.9398,2.9389,2.9391,2.9388,2.936,2.9359,2.9345,2.9352,2.935,2.9346,2.9347,2.9327,2.9323,2.9311,2.934,2.931,2.9317,2.9309,2.9308,2.9309,2.9346,2.9347,2.9348,2.9348,0,2.948,2.9468,2.9466,2.946,2.9458,2.9452,2.9443,2.9446,2.9414,2.9415,2.9414,2.9411,2.9406,2.9403,2.9396,2.9386,2.9362,2.9358,2.9363,2.9369,2.9377,2.9372,2.9284,2.9356,2.9355,2.9355,2.9354,2.9354,2.9534,2.9541,2.9527,2.9525,2.9516,2.9509,2.9514,2.9497,2.9496,2.9489,2.9473,2.9475,2.9461,2.9448,2.9441,2.9442,2.9427,2.9434,2.9435,2.9437,2.9441,2.9379,2.944,2.944,2.944,2.944,2.944,0,2.9602,2.9591,2.959,2.9579,2.9578,2.9557,2.9547,2.9547,2.9549,2.9539,2.9536,2.9535,2.9532,2.9513,2.9508,2.9513,2.9501,2.9512,2.9511,2.9509,2.9455,2.9451,2.9521,2.9521,2.9521,2.9521,2.9521,2.9521,2.9636,2.9647,2.9633,2.9639,2.9628,2.9629,2.9625,2.9619,2.961,2.9611,2.9609,2.9596,2.9582,2.9576,2.9573,2.9567,2.9566,2.958,2.9571,2.952,2.9512,2.9505,2.9501,2.958,2.9581,2.9624,2.9624,2.9625]}]]